Location: Ku?niki
(51.4449°N, 17.8974°E)
Time: 20:37:34
(UTC+00:00)

Landsat 7 - Visible Passes

Search period start: 07 December 2023 00:00
Search period end: 17 December 2023 00:00
Orbit: 691 x 693 km, 97.9° (Epoch: 07 December)

Date Brightness Start Highest point End Pass type
(mag) Time Alt. Az. Time Alt. Az. Time Alt. Az.
07 Dec 6.6 05:44:01 10° NE 05:47:08 17° E 05:50:14 10° SE visible
07 Dec 5.5 17:00:05 18° NNE 17:00:05 18° NNE 17:01:33 10° N visible
07 Dec 6.4 18:38:45 13° NNW 18:38:45 13° NNW 18:39:19 10° NNW visible
08 Dec 5.8 16:01:25 11° NNE 16:01:25 11° NNE 16:01:54 10° NNE visible
08 Dec 5.7 17:40:05 19° N 17:40:05 19° N 17:41:25 10° N visible
09 Dec 6.9 05:26:34 10° ENE 05:28:21 12° E 05:30:08 10° ESE visible
09 Dec 5.6 16:41:25 16° NNE 16:41:25 16° NNE 16:42:44 10° N visible
09 Dec 6.2 18:20:04 15° NNW 18:20:04 15° NNW 18:20:56 10° NNW visible
10 Dec 5.6 17:21:24 19° N 17:21:24 19° N 17:22:46 10° N visible
11 Dec 5.7 16:22:42 14° NNE 16:22:42 14° NNE 16:23:46 10° NNE visible
11 Dec 6.0 18:01:22 17° NNW 18:01:22 17° NNW 18:02:27 10° NNW visible
12 Dec 6.6 05:46:22 10° NE 05:49:37 18° E 05:52:53 10° SE visible
12 Dec 5.6 17:02:40 18° NNE 17:02:40 18° NNE 17:04:03 10° N visible
12 Dec 6.5 18:41:20 12° NNW 18:41:20 12° NNW 18:41:45 10° NNW visible
13 Dec 5.8 16:03:58 11° NNE 16:03:58 11° NNE 16:04:33 10° NNE visible
13 Dec 5.8 17:42:37 18° N 17:42:37 18° N 17:43:53 10° N visible
14 Dec 6.8 05:28:45 10° ENE 05:30:51 13° E 05:32:56 10° ESE visible
14 Dec 5.6 16:43:55 16° NNE 16:43:55 16° NNE 16:45:14 10° N visible
14 Dec 6.2 18:22:35 15° NNW 18:22:35 15° NNW 18:23:22 10° NNW visible
15 Dec 6.1 06:06:48 10° NE 06:10:50 27° E 06:14:51 10° SSE visible
15 Dec 5.6 17:23:52 19° N 17:23:52 19° N 17:25:15 10° N visible
16 Dec 5.6 16:25:07 14° NNE 16:25:07 14° NNE 16:26:18 10° NNE visible
16 Dec 6.0 18:03:47 17° NNW 18:03:47 17° NNW 18:04:53 10° NNW visible
